Weather History for KSHD - February, 2014

Change the Weather History Date:

Saturday, February 8, 2014

  Actual Average Record
Temperature  
Mean Temperature 32 °F -  
Max Temperature 37 °F 46 °F 71 °F (2005)
Min Temperature 26 °F 26 °F 3 °F (2007)
Degree Days  
Heating Degree Days 34    
Moisture  
Dew Point 21 °F    
Average Humidity 68    
Maximum Humidity 76    
Minimum Humidity 60    
Precipitation  
Precipitation 0.00 in - - ()
Sea Level Pressure  
Sea Level Pressure 30.21 in    
Wind  
Wind Speed 2 mph (SE)    
Max Wind Speed 9 mph    
Max Gust Speed -    
Visibility 10 miles    
Events Snow    
Averages and records for this station are not official NWS values.
T = Trace of Precipitation, MM = Missing Value Source: NWS Daily Summary

Daily Weather History Graph

Daily Weather History Graph

Search for Another Location

Airport or City:

Trip Planner

Search our weather history database for the weather conditions in past years. The results will help you decide how hot, cold, wet, or windy it might be!

Date:

Astronomy

Feb. 08, 2014 Rise Set
Actual Time 7:13 AM EST 5:46 PM EST
Civil Twilight 6:46 AM EST 6:13 PM EST
Nautical Twilight 6:15 AM EST 6:44 PM EST
Astronomical Twilight 5:44 AM EST 7:15 PM EST
Moon 12:40 PM EST (2/8) 2:23 AM EST (2/8)
Length of Visible Light 11h 27m
Length of Day
10h 32m
Waxing Gibbous, 68% of the Moon is Illuminated
Feb 8
Waxing Gibbous
Feb 14
Full
Feb 22
Last Quarter
Mar 1
New
Mar 8
First Quarter

Hourly Weather History & Observations

Time (EST) Temp. Windchill Dew Point Humidity Pressure Visibility Wind Dir Wind Speed Gust Speed Precip Events Conditions
12:15 AM 28.0 °F - 17.6 °F 65% 30.29 in 10.0 mi Calm Calm - N/A   Clear
12:35 AM 26.8 °F - 18.3 °F 70% 30.29 in 10.0 mi Calm Calm - N/A   Clear
12:55 AM 26.2 °F - 19.2 °F 75% 30.30 in 10.0 mi Calm Calm - N/A   Clear
1:15 AM 26.6 °F - 19.9 °F 76% 30.29 in 10.0 mi Calm Calm - N/A   Clear
1:35 AM 28.2 °F - 18.5 °F 67% 30.29 in 10.0 mi Calm Calm - N/A   Clear
1:55 AM 27.3 °F - 19.2 °F 72% 30.28 in 10.0 mi Calm Calm - N/A   Clear
2:15 AM 26.8 °F - 19.9 °F 75% 30.28 in 10.0 mi Calm Calm - N/A   Clear
2:35 AM 27.5 °F - 18.5 °F 69% 30.27 in 10.0 mi Calm Calm - N/A   Clear
2:55 AM 27.3 °F - 18.5 °F 69% 30.28 in 10.0 mi Calm Calm - N/A   Clear
3:15 AM 26.4 °F 22.4 °F 19.6 °F 75% 30.27 in 10.0 mi North 3.5 mph - N/A   Clear
3:35 AM 27.3 °F - 18.7 °F 70% 30.26 in 10.0 mi Calm Calm - N/A   Clear
3:55 AM 27.0 °F - 18.7 °F 71% 30.26 in 10.0 mi Calm Calm - N/A   Clear
4:15 AM 27.0 °F - 18.5 °F 70% 30.25 in 10.0 mi Calm Calm - N/A   Scattered Clouds
4:35 AM 27.3 °F - 18.5 °F 69% 30.26 in 10.0 mi Calm Calm - N/A   Overcast
4:55 AM 27.3 °F - 18.7 °F 70% 30.26 in 10.0 mi Calm Calm - N/A   Overcast
5:15 AM 27.3 °F - 19.2 °F 72% 30.26 in 10.0 mi Calm Calm - N/A   Overcast
5:35 AM 27.3 °F - 18.5 °F 69% 30.26 in 10.0 mi Calm Calm - N/A   Overcast
5:55 AM 27.5 °F - 18.7 °F 69% 30.25 in 10.0 mi Calm Calm - N/A   Overcast
6:15 AM 27.5 °F - 19.2 °F 71% 30.25 in 10.0 mi Calm Calm - N/A   Overcast
6:35 AM 27.3 °F - 19.0 °F 71% 30.26 in 10.0 mi Calm Calm - N/A   Overcast
6:55 AM 27.3 °F - 19.4 °F 72% 30.27 in 10.0 mi Calm Calm - N/A   Overcast
7:15 AM 27.5 °F - 19.4 °F 72% 30.28 in 10.0 mi Calm Calm - N/A   Overcast
7:35 AM 27.5 °F - 20.1 °F 74% 30.28 in 10.0 mi Calm Calm - N/A   Overcast
7:55 AM 27.5 °F - 19.8 °F 73% 30.28 in 10.0 mi Calm Calm - N/A   Overcast
8:15 AM 27.9 °F - 19.2 °F 70% 30.28 in 10.0 mi Calm Calm - N/A   Overcast
8:35 AM 28.0 °F - 18.9 °F 68% 30.27 in 10.0 mi Calm Calm - N/A Snow Light Snow
8:37 AM 28.4 °F - 19.4 °F 69% 30.28 in 10.0 mi Calm Calm - N/A Snow Light Snow
8:55 AM 28.2 °F - 18.9 °F 68% 30.27 in 10.0 mi Calm Calm - N/A   Overcast
9:15 AM 28.4 °F - 19.0 °F 68% 30.27 in 10.0 mi Calm Calm - N/A   Overcast
9:35 AM 28.4 °F - 19.0 °F 68% 30.27 in 10.0 mi Calm Calm - N/A   Overcast
9:55 AM 28.4 °F - 18.1 °F 65% 30.28 in 10.0 mi Calm Calm - N/A   Overcast
10:15 AM 29.5 °F - 18.5 °F 64% 30.27 in 10.0 mi Calm Calm - N/A   Overcast
10:35 AM 30.2 °F - 18.5 °F 62% 30.27 in 10.0 mi Calm Calm - N/A   Overcast
10:55 AM 30.7 °F - 20.3 °F 65% 30.26 in 7.0 mi Calm Calm - N/A   Overcast
11:15 AM 32.0 °F 28.7 °F 21.0 °F 64% 30.25 in 10.0 mi South 3.5 mph - N/A   Overcast
11:35 AM 32.0 °F 25.6 °F 21.6 °F 65% 30.25 in 10.0 mi SW 6.9 mph - N/A   Overcast
11:55 AM 32.0 °F 27.5 °F 22.1 °F 67% 30.24 in 7.0 mi South 4.6 mph - N/A Snow Light Snow
12:15 PM 32.2 °F 25.8 °F 22.5 °F 67% 30.23 in 10.0 mi SSW 6.9 mph - N/A   Overcast
12:35 PM 32.2 °F 25.0 °F 22.1 °F 66% 30.21 in 10.0 mi South 8.1 mph - N/A   Overcast
12:55 PM 33.1 °F 27.7 °F 22.5 °F 65% 30.20 in 10.0 mi SSW 5.8 mph - N/A   Overcast
1:15 PM 33.8 °F 29.6 °F 22.8 °F 64% 30.20 in 10.0 mi South 4.6 mph - N/A   Overcast
1:35 PM 34.3 °F 29.2 °F 23.2 °F 64% 30.17 in 10.0 mi South 5.8 mph - N/A   Overcast
1:55 PM 34.7 °F 31.8 °F 23.7 °F 64% 30.16 in 7.0 mi SSW 3.5 mph - N/A Snow Light Snow
2:15 PM 35.1 °F 30.1 °F 23.5 °F 63% 30.15 in 10.0 mi South 5.8 mph - N/A   Overcast
2:35 PM 36.5 °F 30.3 °F 24.8 °F 63% 30.13 in 10.0 mi South 8.1 mph - N/A   Overcast
2:55 PM 35.6 °F 32.8 °F 24.3 °F 63% 30.13 in 10.0 mi South 3.5 mph - N/A   Overcast
3:15 PM 36.3 °F 31.6 °F 24.8 °F 63% 30.13 in 10.0 mi South 5.8 mph - N/A   Overcast
3:35 PM 37.2 °F 31.9 °F 25.0 °F 61% 30.12 in 10.0 mi South 6.9 mph - N/A   Overcast
3:55 PM 37.6 °F 31.6 °F 25.0 °F 60% 30.12 in 10.0 mi South 8.1 mph - N/A   Overcast
4:15 PM 36.7 °F 32.0 °F 24.8 °F 62% 30.12 in 10.0 mi South 5.8 mph - N/A   Overcast
4:17 PM 37.4 °F 30.8 °F 24.8 °F 60% 30.12 in 10.0 mi South 9.2 mph - N/A   Overcast
4:35 PM 36.7 °F 32.0 °F 24.3 °F 61% 30.12 in 10.0 mi SSE 5.8 mph - N/A   Overcast
4:55 PM 36.1 °F 32.3 °F 23.9 °F 61% 30.13 in 10.0 mi SSE 4.6 mph - N/A   Mostly Cloudy
5:15 PM 36.1 °F 31.4 °F 24.4 °F 63% 30.13 in 10.0 mi South 5.8 mph - N/A   Overcast
5:35 PM 35.6 °F 30.7 °F 23.9 °F 62% 30.13 in 10.0 mi South 5.8 mph - N/A   Overcast
5:55 PM 34.9 °F 29.9 °F 23.5 °F 63% 30.13 in 10.0 mi South 5.8 mph - N/A   Overcast
6:15 PM 34.7 °F 31.8 °F 23.7 °F 64% 30.13 in 10.0 mi SSE 3.5 mph - N/A   Overcast
6:35 PM 34.7 °F 30.6 °F 23.5 °F 64% 30.14 in 10.0 mi SSE 4.6 mph - N/A   Overcast
6:55 PM 34.2 °F 31.2 °F 23.9 °F 66% 30.14 in 10.0 mi East 3.5 mph - N/A   Overcast
7:15 PM 34.0 °F - 24.3 °F 68% 30.14 in 10.0 mi Calm Calm - N/A   Overcast
7:35 PM 33.4 °F 30.4 °F 24.4 °F 70% 30.14 in 10.0 mi ENE 3.5 mph - N/A   Overcast
7:55 PM 32.9 °F - 24.3 °F 71% 30.14 in 10.0 mi Calm Calm - N/A   Overcast
8:15 PM 32.5 °F 29.3 °F 24.4 °F 72% 30.13 in 10.0 mi NNE 3.5 mph - N/A   Overcast
8:16 PM 33.8 °F 30.8 °F 24.8 °F 70% 30.13 in 10.0 mi NNE 3.5 mph - N/A   Overcast
8:35 PM 32.0 °F 27.5 °F 24.1 °F 73% 30.13 in 10.0 mi NNE 4.6 mph - N/A   Overcast
8:55 PM 32.0 °F 28.7 °F 23.7 °F 71% 30.13 in 10.0 mi NE 3.5 mph - N/A   Overcast
9:15 PM 32.0 °F - 23.4 °F 70% 30.14 in 10.0 mi Calm Calm - N/A   Overcast
9:35 PM 31.5 °F 26.8 °F 22.6 °F 70% 30.14 in 10.0 mi NE 4.6 mph - N/A   Overcast
9:55 PM 31.1 °F 27.7 °F 23.0 °F 72% 30.15 in 10.0 mi NNE 3.5 mph - N/A   Overcast
10:15 PM 31.1 °F 26.4 °F 21.9 °F 69% 30.16 in 10.0 mi NE 4.6 mph - N/A   Overcast
10:16 PM 30.2 °F 25.4 °F 21.2 °F 69% 30.16 in 10.0 mi NE 4.6 mph - N/A   Overcast
10:35 PM 30.9 °F 27.5 °F 21.9 °F 69% 30.15 in 10.0 mi NE 3.5 mph - N/A   Overcast
10:55 PM 30.7 °F 26.0 °F 22.1 °F 70% 30.15 in 10.0 mi NE 4.6 mph - N/A   Overcast
11:15 PM 30.6 °F 25.8 °F 21.9 °F 70% 30.14 in 10.0 mi ENE 4.6 mph - N/A   Overcast
11:35 PM 30.2 °F 26.7 °F 21.6 °F 70% 30.14 in 10.0 mi NE 3.5 mph - N/A   Overcast
11:55 PM 30.2 °F - 22.1 °F 72% 30.13 in 10.0 mi Calm Calm - N/A   Overcast